Location: Angwan Shehu
(11.2514°N, 7.4613°E)
Time: 22:25:00
(UTC+00:00)

ADEOS Rocket - Pass Details

Date: 14 November 2019
Orbit: 859 x 1307 km, 98.7° (Epoch: 05 December)

Event Time Altitude Azimuth Distance (km) Brightness Sun altitude
Exits shadow 17:58:38 19° 74° (ENE) 2,008 4.0 -13.8°
Maximum altitude 18:00:25 22° 99° (E) 1,839 3.9 -14.3°
Drops below altitude 10° 18:04:36 10° 149° (SSE) 2,508 5.0 -15.2°
Sets 18:07:27 0° 164° (SSE) 3,427 5.9 -15.9°
